Regional Weather Roundup
Issued by NWS Cleveland, OH

Home | Current Version | Previous Version | Graphics & Text | Print | Product List | Glossary On
Versions: 1 2 3 4 5 6 7 8 9 10 11 12 13 14 15 16 17 18 19 20 21 22 23 24 25 26 27 28 29 30 31 32 33 34 35 36 37 38 39 40 41 42 43 44 45 46 47 48 49 50
000
ASUS41 KCLE 020500
RWRCLE
OHIO REGIONAL WEATHER ROUNDUP
NATIONAL WEATHER SERVICE WILMINGTON, OH
1200 AM EST MON MAR 02 2015

NOTE: "FAIR" INDICATES FEW OR NO CLOUDS BELOW 12,000 FEET WITH NO
SIGNIFICANT WEATHER AND/OR OBSTRUCTIONS TO VISIBILITY.

OHZ001>008-015>018-024>027-034-035-043-044-020600-
   NORTHWEST OHIO

CITY           SKY/WX    TMP DP  RH WIND       PRES   REMARKS
DEFIANCE       CLOUDY    24  17  74 W10G16    30.30R WCI  14
FINDLAY        CLOUDY    22  18  85 W12       30.28R FOG     WCI  10
TOLEDO EXPRESS CLOUDY    21  17  84 W10       30.27S WCI  10
TOLEDO EXEC    CLOUDY    21  17  84 W10       30.28S WCI  10
LIMA             N/A     25  20  81 W18       30.29R WCI  11
$$

OHZ009>014-019>023-028>033-038-089-020600-
   NORTHEAST OHIO

CITY           SKY/WX    TMP DP  RH WIND       PRES   REMARKS
CLE-HOPKINS    CLOUDY    21  18  88 W10       30.27R WCI  10
CLE-LAKEFRONT  MOCLDY    19  15  84 SW13      30.24R WCI   6
CUY CO. ARPT   NOT AVBL
LORAIN-ELYRIA  CLOUDY    21  18  88 W9        30.25S FOG     WCI  11
ASHTABULA      CLOUDY    22  18  85 W14       30.20S WCI   9
AKRON-CANTON   CLOUDY    26  21  81 NW10      30.20R WCI  16
WOOSTER        NOT AVBL
MANSFIELD      CLOUDY    23  21  92 W10       30.23R FOG     WCI  12
YOUNGSTOWN     MOCLDY    26  22  84 NW13      30.17S WCI  15
$$

OHZ042-051>053-060>062-070>072-077>081-020600-
  SOUTHWEST OHIO

CITY           SKY/WX    TMP DP  RH WIND       PRES   REMARKS
CINC-COVINGTON CLOUDY    32  28  85 NW13      30.33R WCI  22
CINC-LUNKEN    CLOUDY    32  28  85 NW13G18   30.35R WCI  22
HAMILTON       CLOUDY    32  28  85 NW9       30.34S WCI  24
DAYTON         NOT AVBL
WRIGHT-PAT AFB NOT AVBL
DAYTON GENERAL CLOUDY    29  24  82 W12       30.30R WCI  19
WILMINGTON     CLOUDY    30  25  81 W15       30.29R WCI  19
$$

OHZ036-037-039>041-045>050-054>059-063>069-073>076-082>088-020600-
  CENTRAL AND SOUTHEAST OHIO

CITY           SKY/WX    TMP DP  RH WIND       PRES   REMARKS
COLUMBUS       CLOUDY    30  28  92 W12       30.27R WCI  20
OSU AIRPORT    CLOUDY    28  23  81 NW15      30.27R HAZE    WCI  16
BOLTON FIELD   NOT AVBL
RICKENBACK AFB NOT AVBL
NEWARK         CLOUDY    32  26  78 W13       30.25S WCI  22
MARION         CLOUDY    24  20  84 W9        30.28R FOG     WCI  14
LANCASTER      CLOUDY    33  29  85 W9        30.26R WCI  25
ZANESVILLE     CLOUDY    32  28  85 W8        30.23S WCI  25
NEW PHILLY     CLOUDY    33  26  75 W9        30.22S WCI  25
$$


USA.gov is the U.S. government's official web portal to all federal, state and local government web resources and services.